Simultaneous Nadir Overpasses (SNOs) Predictions

Prediction of SNOs between GOES-15 and TERRA Satellite Orbit:

Table of predicted SNOs for the next 14.0 days since TLE Epoch: 8/3/2014
Index Date Time (GOES-15) GOES-15 Lat,Lon TERRA Lat,Lon Distance(km) Time Diff (sec)
1 08/04/2014 07:22:14 -0.08,-135.49 0.40,-133.36 242.64 80
2 08/04/2014 19:46:09 0.11,-135.50 0.76,-138.51 342.26 80
3 08/06/2014 19:34:00 0.10,-135.51 0.11,-135.57 6.80 80
4 08/08/2014 19:19:10 0.10,-135.50 -0.49,-132.61 327.91 80
5 08/09/2014 07:43:15 -0.12,-135.49 -0.60,-137.81 263.18 80
6 08/11/2014 07:28:25 -0.12,-135.48 0.02,-134.86 71.01 80
7 08/13/2014 07:16:15 -0.11,-135.47 0.65,-131.91 404.98 80
8 08/13/2014 19:40:10 0.14,-135.47 0.50,-137.05 180.35 80
9 08/15/2014 19:25:20 0.13,-135.45 -0.15,-134.10 153.19 80
10 08/16/2014 07:49:24 -0.16,-135.44 -0.98,-139.29 438.28 80




NCC Satellite Simultaneous Nadir Overpasses (SNOs) Prediction Service
